Simultaneous Nadir Overpasses (SNOs) Predictions

Prediction of SNOs between AQUA and NOAA-19 Satellite Orbit:

Table of predicted SNOs for the next 14.0 days since TLE Epoch: 3/6/2021
Index Date (AQUA) Time (AQUA) Lat,Lon (AQUA) SZA (AQUA ) Date (NOAA-19) Time (NOAA-19) Lat,Lon (NOAA-19) SZA (NOAA-19 ) Distance(km) Time Diff (sec)
1 03/07/2021 05:02:18 79.09, 80.22 85.40 03/07/2021 05:02:05 79.10, 80.35 85.40 2.88 13
2 03/09/2021 10:36:01 -79.07, 176.88 95.51 03/09/2021 10:35:22 -79.07, 176.88 95.49 0.42 39
3 03/09/2021 11:25:29 79.11, -15.71 84.54 03/09/2021 11:26:17 79.10, -15.58 84.50 2.94 48
4 03/11/2021 16:09:45 79.06, -86.48 83.60 03/11/2021 16:08:32 78.99, -86.91 83.60 11.61 73
5 03/11/2021 16:59:11 -79.06, 81.16 96.42 03/11/2021 16:59:34 -79.08, 81.07 96.40 3.51 23
6 03/13/2021 22:32:55 79.05, 177.77 82.69 03/13/2021 22:32:42 79.06, 177.68 82.71 2.13 13
7 03/16/2021 04:06:38 -79.05, -85.66 98.21 03/16/2021 04:06:00 -79.04, -85.75 98.20 2.47 38
8 03/16/2021 04:56:06 79.09, 81.74 81.83 03/16/2021 04:56:54 79.06, 81.73 81.79 3.04 48
9 03/18/2021 09:40:22 79.06, 10.88 80.91 03/18/2021 09:39:09 78.95, 10.40 80.89 15.25 73



Historial Predications of SNOs between AQUA and NOAA-19
